map of HGR home
HGR - Airport
Location
City:  Hagerstown, Maryland, United States
Name:Hagerstown Regional-Richard A Henson Field
ICAO:KHGR
IATA:HGR
FAA LID:HGR

Details
Type:Airport (Part 139 Class I)
Use:Public/Civil
Latitude:3942'31"N (39.708500)
Longitude:7743'35"W (-77.726499)
Datum:WGS 1984
Elevation:703 ft (214 m)
Variation:10.60W (WMM2015 magnetic declination)
-0.01 annual change
Runways:2
Longest:7000 × 150 ft (2134 × 45.5 m), paved

Time
Time Zone:UTC-5 (DST-4)
Local Time:

Weather
METAR:KHGR 231753Z 25011KT 10SM SCT075 19/02 A2997 RMK AO2 SLP159 T01940017 10194 20072 58028

Related Locations
Nearby:
Farthest:YAUG: 11638 mi / 18730 km
Augusta [Augusta Airport], WA, AU

Find:

   beyond  
but within

Other Information
Maps:
Delays:
NOTAMs:
Links:
Sources:

  
  • flag of United States
  • flag of Maryland
  

Airport Diagram

Airport diagram for HGR

Airport diagram PDF

Sectional Chart

Flight Planning
at skyvector.com

Satellite Image

Google Maps Satellite view

 

Copyright © 2004-2018 Karl L. Swartz. All rights reserved.
The Great Circle Mapper name and logo are trademarks of the Great Circle Mapper.
All other trademarks mentioned herein belong to their respective owners.
Please see credits for attibutions and further copyright information.

  Follow gcmap on Facebook Follow gcmap on Twitter Follow gcmap on Google+ GCmap on LinkedIn

hCard Microformat

Geo Microformat